Weather History for Adana, Turkey

Change the Weather History Date:

Friday, March 28, 2014

  Actual Average Record
Temperature  
Mean Temperature 63 °F -  
Max Temperature 74 °F 72 °F 86 °F (2004)
Min Temperature 52 °F 51 °F 39 °F (2002)
Degree Days  
Heating Degree Days 2    
Growing Degree Days 13 (Base 50)    
Moisture  
Dew Point 51 °F    
Average Humidity 69    
Maximum Humidity 94    
Minimum Humidity 28    
Precipitation  
Precipitation 0.00 in 0.08 in - ()
Sea Level Pressure  
Sea Level Pressure 29.99 in    
Wind  
Wind Speed 5 mph ()    
Max Wind Speed 14 mph    
Max Gust Speed -    
Visibility 5.1 miles    
Events      
Averages and records for this station are not official NWS values.
T = Trace of Precipitation, MM = Missing Value Source: Averaged Metar Reports

Daily Weather History Graph

Daily Weather History Graph

Search for Another Location

Airport:

Trip Planner

Search our weather history database for the weather conditions in past years. The results will help you decide how hot, cold, wet, or windy it might be!

Date:

Astronomy

Mar. 28, 2014 Rise Set
Actual Time 5:30 AM EET 5:57 PM EET
Civil Twilight 5:04 AM EET 6:23 PM EET
Nautical Twilight 4:34 AM EET 6:54 PM EET
Astronomical Twilight 4:03 AM EET 7:25 PM EET
Moon 3:44 AM EET (3/28) 3:33 PM EET (3/28)
Length of Visible Light 13h 18m
Length of Day
12h 26m
Waning Crescent, 8% of the Moon is Illuminated
Mar 28
Waning Crescent
Mar 30
New
Apr 7
First Quarter
Apr 15
Full
Apr 22
Last Quarter

Hourly Weather History & Observations

Time (EET) Temp. Dew Point Humidity Pressure Visibility Wind Dir Wind Speed Gust Speed Precip Events Conditions
12:20 AM 55.4 °F 50.0 °F 82% 30.09 in 3.1 mi Variable 2.3 mph - N/A   Partly Cloudy
12:50 AM 53.6 °F 50.0 °F 88% 30.09 in 3.1 mi NE 4.6 mph - N/A   Partly Cloudy
1:20 AM 53.6 °F 50.0 °F 88% 30.09 in 3.1 mi NE 5.8 mph - N/A   Partly Cloudy
1:50 AM 53.6 °F 50.0 °F 88% 30.06 in 3.1 mi NNE 6.9 mph - N/A   Partly Cloudy
2:00 AM 54 °F 50 °F 81% 30.09 in 3 mi NNE 6.9 mph - -   Mist
2:20 AM 53.6 °F 50.0 °F 88% 30.06 in 3.1 mi NE 5.8 mph - N/A   Partly Cloudy
2:50 AM 55.4 °F 51.8 °F 88% 30.06 in 3.1 mi NW 3.5 mph - N/A   Partly Cloudy
3:20 AM 53.6 °F 50.0 °F 88% 30.06 in 3.1 mi Calm Calm - N/A   Partly Cloudy
3:50 AM 53.6 °F 50.0 °F 88% 30.06 in 3.1 mi NE 5.8 mph - N/A   Partly Cloudy
4:20 AM 53.6 °F 50.0 °F 88% 30.06 in 3.1 mi Variable 2.3 mph - N/A   Partly Cloudy
4:50 AM 51.8 °F 48.2 °F 88% 30.04 in 3.1 mi NE 5.8 mph - N/A   Partly Cloudy
5:00 AM 53 °F 49 °F 81% 30.06 in 3 mi NE 5.8 mph - -   Mist
5:20 AM 51.8 °F 48.2 °F 88% 30.06 in 3.1 mi NE 5.8 mph - N/A   Partly Cloudy
5:50 AM 51.8 °F 48.2 °F 88% 30.06 in 3.1 mi NNE 5.8 mph - N/A   Partly Cloudy
6:20 AM 53.6 °F 50.0 °F 88% 30.06 in 3.1 mi NE 6.9 mph - N/A   Mostly Cloudy
6:50 AM 55.4 °F 53.6 °F 94% 30.06 in 3.1 mi NE 4.6 mph - N/A   Mostly Cloudy
7:20 AM 59.0 °F 51.8 °F 77% 30.06 in 3.1 mi NE 5.8 mph - N/A   Mostly Cloudy
7:50 AM 60.8 °F 51.8 °F 72% 30.06 in 3.1 mi NE 4.6 mph - N/A   Mostly Cloudy
8:00 AM 60 °F 52 °F 69% 30.08 in 3 mi NE 4.6 mph - -   Mist
8:20 AM 62.6 °F 51.8 °F 68% 30.06 in 6.2 mi NE 4.6 mph - N/A   Mostly Cloudy
9:20 AM 64.4 °F 51.8 °F 64% 30.06 in 6.2 mi Variable 2.3 mph - N/A   Partly Cloudy
9:50 AM 66.2 °F 51.8 °F 60% 30.04 in 6.2 mi Variable 4.6 mph - N/A   Partly Cloudy
10:20 AM 68.0 °F 50.0 °F 52% 30.04 in 6.2 mi Variable 3.5 mph - N/A   Scattered Clouds
10:50 AM 68.0 °F 51.8 °F 56% 30.04 in 6.2 mi NE 6.9 mph - N/A   Scattered Clouds
11:00 AM 68 °F 50 °F 42% 30.04 in 6 mi NE 6.9 mph - -   Scattered Clouds
11:20 AM 68.0 °F 50.0 °F 52% 30.01 in 6.2 mi Variable 2.3 mph - N/A   Scattered Clouds
11:50 AM 71.6 °F 51.8 °F 50% 30.01 in 6.2 mi Variable 3.5 mph - N/A   Partly Cloudy
12:20 PM 71.6 °F 51.8 °F 50% 30.01 in 6.2 mi Variable 4.6 mph - N/A   Partly Cloudy
12:50 PM 73.4 °F 51.8 °F 47% 29.98 in 6.2 mi NNW 4.6 mph - N/A   Partly Cloudy
1:20 PM 73.4 °F 50.0 °F 44% 29.98 in 6.2 mi SSW 4.6 mph - N/A   Mostly Cloudy
1:50 PM 73.4 °F 48.2 °F 41% 29.95 in 6.2 mi South 5.8 mph - N/A   Mostly Cloudy
2:00 PM 73 °F 47 °F 28% 29.97 in 6 mi South 5.8 mph - -   Scattered Clouds
2:20 PM 73.4 °F 48.2 °F 41% 29.95 in 6.2 mi SSW 6.9 mph - N/A   Scattered Clouds
2:50 PM 71.6 °F 53.6 °F 53% 29.92 in 6.2 mi SSW 13.8 mph - N/A   Scattered Clouds
3:20 PM 71.6 °F 53.6 °F 53% 29.92 in 6.2 mi SSW 11.5 mph - N/A   Scattered Clouds
3:50 PM 69.8 °F 53.6 °F 56% 29.92 in 6.2 mi SSW 10.4 mph - N/A   Mostly Cloudy
4:20 PM 68.0 °F 50.0 °F 52% 29.92 in 6.2 mi SW 9.2 mph - N/A   Mostly Cloudy
4:50 PM 66.2 °F 46.4 °F 49% 29.92 in 6.2 mi SW 10.4 mph - N/A   Mostly Cloudy
5:00 PM 67 °F 47 °F 37% 29.93 in 6 mi SW 10.4 mph - -   Partly Cloudy
5:20 PM 64.4 °F 48.2 °F 56% 29.92 in 6.2 mi SSW 9.2 mph - N/A   Mostly Cloudy
5:50 PM 64.4 °F 50.0 °F 59% 29.92 in 6.2 mi SSW 9.2 mph - N/A   Mostly Cloudy
6:20 PM 62.6 °F 53.6 °F 72% 29.92 in 6.2 mi SW 8.1 mph - N/A   Mostly Cloudy
6:50 PM 62.6 °F 51.8 °F 68% 29.92 in 6.2 mi West 5.8 mph - N/A   Mostly Cloudy
7:20 PM 62.6 °F 51.8 °F 68% 29.92 in 6.2 mi WSW 4.6 mph - N/A   Mostly Cloudy
7:50 PM 60.8 °F 51.8 °F 72% 29.92 in 6.2 mi SW 3.5 mph - N/A   Mostly Cloudy
8:00 PM 60 °F 52 °F 69% 29.94 in 6 mi SW 3.5 mph - -   Partly Cloudy
8:20 PM 60.8 °F 53.6 °F 77% 29.92 in 6.2 mi SW 3.5 mph - N/A   Mostly Cloudy
8:50 PM 60.8 °F 53.6 °F 77% 29.92 in 6.2 mi SSW 3.5 mph - N/A   Mostly Cloudy
9:20 PM 59.0 °F 51.8 °F 77% 29.92 in 6.2 mi Variable 1.2 mph - N/A   Mostly Cloudy
9:50 PM 59.0 °F 51.8 °F 77% 29.92 in 6.2 mi SSE 1.2 mph - N/A   Mostly Cloudy
10:20 PM 59.0 °F 51.8 °F 77% 29.89 in 6.2 mi SE 2.3 mph - N/A   Mostly Cloudy
10:50 PM 59.0 °F 53.6 °F 82% 29.89 in 6.2 mi Variable 2.3 mph - N/A   Scattered Clouds
11:00 PM 59 °F 53 °F 75% 29.91 in 6 mi ENE 2.3 mph - -   Partly Cloudy
11:20 PM 59.0 °F 53.6 °F 82% 29.89 in 6.2 mi ESE 4.6 mph - N/A   Scattered Clouds
11:50 PM 59.0 °F 53.6 °F 82% 29.89 in 6.2 mi ESE 5.8 mph - N/A   Scattered Clouds